Flag for U.S.A. Weather past 2 weeks in Santa Clara, California, U.S.A.

Now
71 °F

Sunny.


Feels Like: 76 °F
Forecast: 43 / 70 °F
Wind: 5 mph from Northwest

Location: San Jose International Airport

Current Time: Mar 5, 2015 at 2:59:52 PM

Latest Report: Mar 5, 2015 at 1:53 PM


Visibility: 10 mi

Pressure: 30.27 "Hg

Humidity: 28%

Dew point: 36 °F

Location of Santa ClaraLocation

Historic Weather in Santa Clara — Graph

°F

Santa Clara temperature yesterday

Maximum temperature yesterday: 68 °F (at 1:53 PM)
Minimum temperature yesterday: 43 °F (at 3:53 AM)
Average temperature yesterday: 55 °F

Past Weeks' High & Low Weather Summary

 TemperatureHumidityPressure
High70 °F (Feb 20, 2:53 PM)94% (Feb 19, 4:03 AM)30.36 "Hg (Feb 19, 4:03 AM)
Low38 °F (Feb 24, 6:53 AM)17% (Feb 24, 1:53 PM)29.74 "Hg (Feb 28, 3:53 AM)
Average55 °F64%30.02 "Hg
* Reported Feb 18 12:53 PM — Mar 5 12:53 PM, Santa Clara, Weather by CustomWeather, © 2015

Note: Actual official high and low records may vary slightly from our data, if they occured in-between our weather recording intervals... More about our weather records

Advertising

Santa Clara weather history for previous 24 hours

 ConditionsComfort  
Time TempWeatherWind HumidityBarometerVisibility
12:53 PM
Thu, Mar 5
69 °FSunny.3 mph31%30.29 "Hg10 mi
11:53 AM67 °FSunny.3 mph39%30.31 "Hg10 mi
10:53 AM64 °FSunny.No wind38%30.33 "Hg10 mi
9:53 AM60 °FSunny.No wind47%30.34 "Hg10 mi
8:53 AM55 °FSunny.No wind55%30.33 "Hg10 mi
7:53 AM50 °FSunny.No wind66%30.32 "Hg10 mi
6:53 AM44 °FSunny.3 mph76%30.29 "Hg10 mi
5:53 AM45 °FClear.No wind71%30.27 "Hg10 mi
4:53 AM44 °FClear.3 mph73%30.25 "Hg10 mi
3:53 AM46 °FClear.3 mph68%30.24 "Hg10 mi
2:53 AM45 °FClear.3 mph68%30.24 "Hg10 mi
1:53 AM48 °FClear.5 mph61%30.24 "Hg10 mi
12:53 AM48 °FClear.3 mph63%30.23 "Hg10 mi
11:53 PM
Wed, Mar 4
50 °FClear.No wind59%30.23 "Hg10 mi
10:53 PM52 °FClear.3 mph55%30.22 "Hg10 mi
9:53 PM55 °FClear.No wind51%30.21 "Hg10 mi
8:53 PM54 °FClear.No wind53%30.19 "Hg10 mi
7:53 PM59 °FClear.3 mph51%30.17 "Hg10 mi
6:53 PM58 °FClear.5 mph47%30.15 "Hg10 mi
5:53 PM60 °FPassing clouds.8 mph38%30.14 "Hg10 mi
4:53 PM66 °FPassing clouds.8 mph22%30.13 "Hg10 mi
3:53 PM67 °FPassing clouds.7 mph20%30.13 "Hg10 mi
2:53 PM67 °FPassing clouds.9 mph26%30.12 "Hg10 mi
Weather by CustomWeather, © 2015

See weather overviewHow to use our weather pages